| time (UTC) | temp C | wind direction | speed KPH | gust KPH | rain 1hr cm | rain 24hr cm | rain mn cm | humidity % | barometer mb |
| 20260505190057 | 26 | 258 | 4.8 | 24.1 | 0.00 | 0.00 | 0.00 | 44 | 1028.8 |
| 20260505185557 | 26 | 70 | 6.4 | 24.1 | 0.00 | 0.00 | 0.00 | 43 | 1028.8 |
| 20260505185056 | 26 | 84 | 6.4 | 25.7 | 0.00 | 0.00 | 0.00 | 47 | 1029.1 |
| 20260505184556 | 26 | 243 | 4.8 | 30.6 | 0.00 | 0.00 | 0.00 | 46 | 1029.1 |
| 20260505184055 | 26 | 282 | 6.4 | 30.6 | 0.00 | 0.00 | 0.00 | 46 | 1029.2 |
| 20260505183557 | 26 | 274 | 4.8 | 27.4 | 0.00 | 0.00 | 0.00 | 47 | 1029.3 |
| 20260505183055 | 26 | 102 | 8.0 | 20.9 | 0.00 | 0.00 | 0.00 | 45 | 1029.4 |
| 20260505182553 | 26 | 105 | 4.8 | 16.1 | 0.00 | 0.00 | 0.00 | 44 | 1029.6 |
| 20260505182052 | 26 | 86 | 3.2 | 19.3 | 0.00 | 0.00 | 0.00 | 50 | 1029.6 |
| 20260505181552 | 26 | 251 | 4.8 | 19.3 | 0.00 | 0.00 | 0.00 | 46 | 1029.7 |
| 20260505181051 | 25 | 96 | 4.8 | 20.9 | 0.00 | 0.00 | 0.00 | 46 | 1029.9 |
| 20260505180555 | 25 | 237 | 4.8 | 20.9 | 0.00 | 0.00 | 0.00 | 47 | 1029.9 |
| 20260505180105 | 26 | 86 | 6.4 | 17.7 | 0.00 | 0.00 | 0.00 | 46 | 1030.0 |
| 20260505175550 | 26 | 97 | 3.2 | 17.7 | 0.00 | 0.00 | 0.00 | 46 | 1030.0 |
| 20260505175050 | 25 | 49 | 3.2 | 17.7 | 0.00 | 0.00 | 0.00 | 45 | 1029.9 |
| 20260505174601 | 26 | 94 | 3.2 | 16.1 | 0.00 | 0.00 | 0.00 | 45 | 1029.9 |
| 20260505174050 | 26 | 77 | 6.4 | 17.7 | 0.00 | 0.00 | 0.00 | 47 | 1030.0 |
| 20260505173549 | 26 | 188 | 4.8 | 27.4 | 0.00 | 0.00 | 0.00 | 45 | 1029.9 |
| 20260505173048 | 26 | 82 | 4.8 | 27.4 | 0.00 | 0.00 | 0.00 | 46 | 1030.0 |
| 20260505172547 | 26 | 86 | 6.4 | 20.9 | 0.00 | 0.00 | 0.00 | 48 | 1029.8 |
| 20260505172046 | 26 | 84 | 3.2 | 16.1 | 0.00 | 0.00 | 0.00 | 46 | 1030.0 |
| 20260505171546 | 26 | 238 | 6.4 | 16.1 | 0.00 | 0.00 | 0.00 | 47 | 1030.1 |
| 20260505171044 | 25 | 254 | 8.0 | 19.3 | 0.00 | 0.00 | 0.00 | 48 | 1029.9 |
| 20260505170547 | 25 | 220 | 9.7 | 19.3 | 0.00 | 0.00 | 0.00 | 48 | 1030.0 |
| 20260505170043 | 25 | 103 | 4.8 | 16.1 | 0.00 | 0.00 | 0.00 | 50 | 1030.2 |
| 20260505165542 | 25 | 71 | 6.4 | 16.1 | 0.00 | 0.00 | 0.00 | 50 | 1030.4 |
| 20260505165041 | 25 | 70 | 4.8 | 19.3 | 0.00 | 0.00 | 0.00 | 50 | 1030.5 |
| 20260505164542 | 25 | 115 | 4.8 | 19.3 | 0.00 | 0.00 | 0.00 | 48 | 1030.5 |
| 20260505164040 | 25 | 81 | 6.4 | 16.1 | 0.00 | 0.00 | 0.00 | 53 | 1030.8 |
| 20260505163541 | 25 | 112 | 6.4 | 17.7 | 0.00 | 0.00 | 0.00 | 50 | 1030.7 |
| 20260505163039 | 25 | 63 | 4.8 | 17.7 | 0.00 | 0.00 | 0.00 | 50 | 1030.9 |
| 20260505162539 | 25 | 77 | 4.8 | 17.7 | 0.00 | 0.00 | 0.00 | 48 | 1030.9 |
| 20260505162038 | 25 | 89 | 8.0 | 19.3 | 0.00 | 0.00 | 0.00 | 49 | 1030.9 |
| 20260505161539 | 25 | 110 | 3.2 | 19.3 | 0.00 | 0.00 | 0.00 | 50 | 1031.0 |
| 20260505161038 | 25 | 240 | 1.6 | 12.9 | 0.00 | 0.00 | 0.00 | 51 | 1031.1 |
| 20260505160537 | 25 | 108 | 1.6 | 17.7 | 0.00 | 0.00 | 0.00 | 51 | 1031.1 |
| 20260505153033 | 24 | 113 | 6.4 | 19.3 | 0.00 | 0.00 | 0.00 | 52 | 1031.5 |
| 20260505152535 | 24 | 275 | 6.4 | 19.3 | 0.00 | 0.00 | 0.00 | 50 | 1031.3 |
| 20260505152031 | 24 | 84 | 6.4 | 17.7 | 0.00 | 0.00 | 0.00 | 50 | 1031.5 |
| 20260505151533 | 24 | 77 | 4.8 | 17.7 | 0.00 | 0.00 | 0.00 | 52 | 1031.4 |
| 20260505151030 | 23 | 88 | 3.2 | 30.6 | 0.00 | 0.00 | 0.00 | 53 | 1031.5 |
| 20260505150531 | 23 | 68 | 8.0 | 30.6 | 0.00 | 0.00 | 0.00 | 51 | 1031.5 |
| 20260505140521 | 23 | 94 | 3.2 | 12.9 | 0.00 | 0.00 | 0.00 | 56 | 1031.5 |
| 20260505125007 | 20 | 86 | 3.2 | 14.5 | 0.00 | 0.00 | 0.00 | 60 | 1032.1 |
| 20260505124507 | 20 | 86 | 0.0 | 8.0 | 0.00 | 0.00 | 0.00 | 62 | 1032.2 |
| 20260505124007 | 20 | 80 | 0.0 | 9.7 | 0.00 | 0.00 | 0.00 | 62 | 1032.2 |
| 20260505123504 | 20 | 122 | 3.2 | 9.7 | 0.00 | 0.00 | 0.00 | 61 | 1032.3 |
| 20260505123004 | 20 | 80 | 1.6 | 4.8 | 0.00 | 0.00 | 0.00 | 63 | 1032.3 |
| 20260505122503 | 20 | 241 | 0.0 | 6.4 | 0.00 | 0.00 | 0.00 | 62 | 1032.0 |
| 20260505122001 | 19 | 86 | 0.0 | 6.4 | 0.00 | 0.00 | 0.00 | 63 | 1031.9 |
| 20260505121501 | 19 | 90 | 0.0 | 6.4 | 0.00 | 0.00 | 0.00 | 65 | 1032.2 |
| 20260505121100 | 18 | 91 | 0.0 | 0.0 | 0.00 | 0.00 | 0.00 | 64 | 1032.2 |
| 20260505120559 | 18 | 91 | 0.0 | 0.0 | 0.00 | 0.00 | 0.00 | 64 | 1032.0 |
| 20260505120058 | 18 | 91 | 0.0 | 0.0 | 0.00 | 0.00 | 0.00 | 67 | 1032.1 |
| 20260505115557 | 17 | 91 | 0.0 | 0.0 | 0.00 | 0.00 | 0.00 | 68 | 1032.1 |
| 20260505115057 | 17 | 91 | 0.0 | 0.0 | 0.00 | 0.00 | 0.00 | 68 | 1032.2 |
| 20260505114557 | 17 | 91 | 0.0 | 0.0 | 0.00 | 0.00 | 0.00 | 67 | 1032.2 |
| 20260505114057 | 18 | 77 | 0.0 | 0.0 | 0.00 | 0.00 | 0.00 | 67 | 1032.2 |
| 20260505113557 | 17 | 77 | 0.0 | 0.0 | 0.00 | 0.00 | 0.00 | 73 | 1032.2 |
| 20260505113110 | 17 | 77 | 0.0 | 0.0 | 0.00 | 0.00 | 0.00 | 73 | 1032.1 |
| 20260505112554 | 16 | 77 | 0.0 | 0.0 | 0.00 | 0.00 | 0.00 | 71 | 1032.1 |
| 20260505112054 | 16 | 77 | 0.0 | 0.0 | 0.00 | 0.00 | 0.00 | 72 | 1032.0 |
| 20260505111554 | 16 | 77 | 0.0 | 0.0 | 0.00 | 0.00 | 0.00 | 72 | 1032.0 |
| 20260505111054 | 17 | 77 | 0.0 | 0.0 | 0.00 | 0.00 | 0.00 | 71 | 1031.8 |
| 20260505110556 | 16 | 77 | 0.0 | 0.0 | 0.00 | 0.00 | 0.00 | 73 | 1031.9 |
| 20260505102049 | 13 | 77 | 0.0 | 0.0 | 0.00 | 0.00 | 0.00 | 76 | 1031.7 |
| 20260505101549 | 13 | 85 | 0.0 | 0.0 | 0.00 | 0.00 | 0.00 | 75 | 1031.4 |
| 20260505101049 | 14 | 86 | 0.0 | 1.6 | 0.00 | 0.00 | 0.00 | 75 | 1031.5 |
| 20260505100548 | 13 | 89 | 0.0 | 1.6 | 0.00 | 0.00 | 0.00 | 75 | 1031.5 |
| 20260505100051 | 13 | 89 | 0.0 | 1.6 | 0.00 | 0.00 | 0.00 | 76 | 1031.4 |
| 20260505095547 | 13 | 87 | 0.0 | 1.6 | 0.00 | 0.00 | 0.00 | 77 | 1031.4 |
| 20260505095048 | 13 | 87 | 0.0 | 1.6 | 0.00 | 0.00 | 0.00 | 78 | 1031.5 |
| 20260505094548 | 13 | 86 | 0.0 | 0.0 | 0.00 | 0.00 | 0.00 | 77 | 1031.4 |
| 20260505094047 | 13 | 86 | 0.0 | 0.0 | 0.00 | 0.00 | 0.00 | 77 | 1031.4 |
| 20260505093547 | 12 | 86 | 0.0 | 0.0 | 0.00 | 0.00 | 0.00 | 78 | 1031.3 |
| 20260505093048 | 12 | 86 | 0.0 | 0.0 | 0.00 | 0.00 | 0.00 | 78 | 1031.2 |
| 20260505092546 | 12 | 86 | 0.0 | 0.0 | 0.00 | 0.00 | 0.00 | 77 | 1031.2 |
| 20260505092045 | 13 | 86 | 0.0 | 0.0 | 0.00 | 0.00 | 0.00 | 77 | 1031.2 |
| 20260505091604 | 13 | 86 | 0.0 | 0.0 | 0.00 | 0.00 | 0.00 | 76 | 1031.1 |
| 20260505091042 | 13 | 86 | 0.0 | 0.0 | 0.00 | 0.00 | 0.00 | 75 | 1031.2 |
| 20260505090541 | 13 | 86 | 0.0 | 0.0 | 0.00 | 0.00 | 0.00 | 74 | 1031.3 |
| 20260505090044 | 13 | 86 | 0.0 | 0.0 | 0.00 | 0.00 | 0.00 | 74 | 1031.3 |
| 20260505085541 | 14 | 86 | 0.0 | 0.0 | 0.00 | 0.00 | 0.00 | 73 | 1031.3 |
| 20260505085039 | 14 | 86 | 0.0 | 0.0 | 0.00 | 0.00 | 0.00 | 73 | 1031.3 |
| 20260505084538 | 14 | 86 | 0.0 | 0.0 | 0.00 | 0.00 | 0.00 | 72 | 1031.2 |
| 20260505084036 | 14 | 86 | 0.0 | 0.0 | 0.00 | 0.00 | 0.00 | 72 | 1031.2 |
| 20260505083536 | 14 | 86 | 0.0 | 0.0 | 0.00 | 0.00 | 0.00 | 71 | 1031.3 |
| 20260505083035 | 15 | 86 | 0.0 | 0.0 | 0.00 | 0.00 | 0.00 | 70 | 1031.3 |
| 20260505082534 | 15 | 86 | 0.0 | 0.0 | 0.00 | 0.00 | 0.00 | 69 | 1031.3 |
| 20260505082033 | 15 | 86 | 0.0 | 0.0 | 0.00 | 0.00 | 0.00 | 68 | 1031.3 |
| 20260505081537 | 16 | 86 | 0.0 | 0.0 | 0.00 | 0.00 | 0.00 | 67 | 1031.2 |
| 20260505081033 | 16 | 86 | 0.0 | 4.8 | 0.00 | 0.00 | 0.00 | 66 | 1031.3 |
| 20260505080533 | 16 | 86 | 0.0 | 4.8 | 0.00 | 0.00 | 0.00 | 66 | 1031.3 |
| 20260505080031 | 16 | 79 | 0.0 | 6.4 | 0.00 | 0.00 | 0.00 | 65 | 1031.1 |
| 20260505075532 | 16 | 79 | 0.0 | 6.4 | 0.00 | 0.00 | 0.00 | 65 | 1031.0 |
| 20260505075031 | 16 | 82 | 0.0 | 8.0 | 0.00 | 0.00 | 0.00 | 64 | 1031.0 |
| 20260505074531 | 16 | 89 | 1.6 | 8.0 | 0.00 | 0.00 | 0.00 | 65 | 1031.0 |
| 20260505074031 | 16 | 92 | 0.0 | 6.4 | 0.00 | 0.00 | 0.00 | 65 | 1031.0 |
| 20260505073531 | 16 | 119 | 0.0 | 4.8 | 0.00 | 0.00 | 0.00 | 66 | 1031.0 |
| 20260505073032 | 16 | 94 | 0.0 | 0.0 | 0.00 | 0.00 | 0.00 | 66 | 1030.9 |
| 20260505072533 | 16 | 90 | 0.0 | 0.0 | 0.00 | 0.00 | 0.00 | 66 | 1031.0 |
| 20260505072029 | 16 | 90 | 0.0 | 0.0 | 0.00 | 0.00 | 0.00 | 66 | 1031.0 |
| 20260505071529 | 16 | 90 | 0.0 | 0.0 | 0.00 | 0.00 | 0.00 | 66 | 1031.1 |
| 20260505071029 | 16 | 90 | 0.0 | 0.0 | 0.00 | 0.00 | 0.00 | 66 | 1031.1 |
| 20260505070532 | 15 | 89 | 0.0 | 0.0 | 0.00 | 0.00 | 0.00 | 65 | 1031.0 |
| 20260505070031 | 15 | 89 | 0.0 | 0.0 | 0.00 | 0.00 | 0.00 | 66 | 1031.1 |
| 20260505065526 | 16 | 89 | 0.0 | 0.0 | 0.00 | 0.00 | 0.00 | 65 | 1031.1 |
| 20260505065024 | 16 | 89 | 0.0 | 0.0 | 0.00 | 0.00 | 0.00 | 64 | 1031.2 |
| 20260505064524 | 16 | 89 | 0.0 | 0.0 | 0.00 | 0.00 | 0.00 | 63 | 1031.4 |
| 20260505064024 | 16 | 89 | 0.0 | 0.0 | 0.00 | 0.00 | 0.00 | 63 | 1031.4 |
| 20260505063524 | 16 | 89 | 0.0 | 0.0 | 0.00 | 0.00 | 0.00 | 62 | 1031.5 |
| 20260505063024 | 16 | 89 | 0.0 | 0.0 | 0.00 | 0.00 | 0.00 | 62 | 1031.5 |
| 20260505062526 | 16 | 88 | 0.0 | 0.0 | 0.00 | 0.00 | 0.00 | 62 | 1031.5 |
| 20260505062023 | 16 | 87 | 0.0 | 0.0 | 0.00 | 0.00 | 0.00 | 63 | 1031.4 |
| 20260505061527 | 16 | 87 | 0.0 | 0.0 | 0.00 | 0.00 | 0.00 | 63 | 1031.4 |
| 20260505061023 | 16 | 94 | 0.0 | 0.0 | 0.00 | 0.00 | 0.00 | 63 | 1031.4 |
| 20260505060526 | 16 | 98 | 0.0 | 0.0 | 0.00 | 0.00 | 0.00 | 62 | 1031.5 |
| 20260505060021 | 16 | 98 | 0.0 | 0.0 | 0.00 | 0.00 | 0.00 | 61 | 1031.6 |
| 20260505055524 | 16 | 101 | 0.0 | 0.0 | 0.00 | 0.00 | 0.00 | 61 | 1031.5 |
| 20260505055020 | 16 | 101 | 0.0 | 3.2 | 0.00 | 0.00 | 0.00 | 61 | 1031.6 |
| 20260505054521 | 16 | 112 | 0.0 | 3.2 | 0.00 | 0.00 | 0.00 | 61 | 1031.6 |
| 20260505054021 | 16 | 87 | 0.0 | 3.2 | 0.00 | 0.00 | 0.00 | 61 | 1031.7 |
| 20260505053520 | 16 | 94 | 0.0 | 3.2 | 0.00 | 0.00 | 0.00 | 61 | 1031.7 |
| 20260505053122 | 16 | 86 | 0.0 | 1.6 | 0.00 | 0.00 | 0.00 | 60 | 1031.7 |
| 20260505052518 | 16 | 72 | 0.0 | 6.4 | 0.00 | 0.00 | 0.00 | 60 | 1031.7 |
| 20260505052018 | 16 | 70 | 0.0 | 6.4 | 0.00 | 0.00 | 0.00 | 59 | 1031.6 |
| 20260505051533 | 16 | 85 | 1.6 | 4.8 | 0.00 | 0.00 | 0.00 | 59 | 1031.7 |
| 20260505051021 | 17 | 82 | 0.0 | 4.8 | 0.00 | 0.00 | 0.00 | 59 | 1031.7 |
| 20260505050517 | 17 | 103 | 0.0 | 6.4 | 0.00 | 0.00 | 0.00 | 59 | 1031.8 |
| 20260505041511 | 16 | 105 | 0.0 | 9.7 | 0.00 | 0.00 | 0.00 | 57 | 1031.5 |
| 20260505041011 | 16 | 84 | 1.6 | 9.7 | 0.00 | 0.00 | 0.00 | 57 | 1031.3 |
| 20260505040510 | 17 | 90 | 0.0 | 8.0 | 0.00 | 0.00 | 0.00 | 57 | 1031.3 |
| 20260505040013 | 17 | 86 | 3.2 | 8.0 | 0.00 | 0.00 | 0.00 | 57 | 1031.2 |
| 20260505035508 | 16 | 96 | 1.6 | 4.8 | 0.00 | 0.00 | 0.00 | 57 | 1031.3 |
| 20260505035008 | 17 | 254 | 0.0 | 9.7 | 0.00 | 0.00 | 0.00 | 57 | 1031.3 |
| 20260505034513 | 17 | 81 | 1.6 | 9.7 | 0.00 | 0.00 | 0.00 | 56 | 1031.2 |
| 20260505034009 | 16 | 102 | 0.0 | 6.4 | 0.00 | 0.00 | 0.00 | 56 | 1031.2 |
| 20260505033508 | 17 | 73 | 0.0 | 6.4 | 0.00 | 0.00 | 0.00 | 56 | 1031.3 |
| 20260505033008 | 16 | 87 | 1.6 | 6.4 | 0.00 | 0.00 | 0.00 | 56 | 1031.3 |
| 20260505032508 | 16 | 357 | 0.0 | 4.8 | 0.00 | 0.00 | 0.00 | 56 | 1031.3 |
| 20260505032007 | 17 | 104 | 0.0 | 6.4 | 0.00 | 0.00 | 0.00 | 56 | 1031.3 |
| 20260505031507 | 17 | 94 | 0.0 | 6.4 | 0.00 | 0.00 | 0.00 | 56 | 1031.2 |
| 20260505031007 | 17 | 101 | 0.0 | 4.8 | 0.00 | 0.00 | 0.00 | 55 | 1031.4 |
| 20260505030508 | 17 | 90 | 0.0 | 3.2 | 0.00 | 0.00 | 0.00 | 55 | 1031.3 |
| 20260505030007 | 17 | 123 | 0.0 | 4.8 | 0.00 | 0.00 | 0.00 | 55 | 1031.2 |
| 20260505025511 | 17 | 79 | 0.0 | 4.8 | 0.00 | 0.00 | 0.00 | 55 | 1031.4 |
| 20260505025008 | 17 | 93 | 0.0 | 6.4 | 0.00 | 0.00 | 0.00 | 54 | 1031.3 |
| 20260505024510 | 17 | 93 | 0.0 | 6.4 | 0.00 | 0.00 | 0.00 | 53 | 1031.3 |
| 20260505024006 | 17 | 86 | 0.0 | 6.4 | 0.00 | 0.00 | 0.00 | 53 | 1031.4 |
| 20260505023506 | 17 | 91 | 0.0 | 8.0 | 0.00 | 0.00 | 0.00 | 53 | 1031.5 |
| 20260505023006 | 18 | 105 | 0.0 | 8.0 | 0.00 | 0.00 | 0.00 | 53 | 1031.5 |
| 20260505022506 | 18 | 91 | 0.0 | 6.4 | 0.00 | 0.00 | 0.00 | 53 | 1031.5 |
| 20260505022006 | 18 | 248 | 0.0 | 9.7 | 0.00 | 0.00 | 0.00 | 53 | 1031.6 |
| 20260505021506 | 18 | 89 | 1.6 | 9.7 | 0.00 | 0.00 | 0.00 | 52 | 1031.6 |
| 20260505021005 | 18 | 101 | 0.0 | 11.3 | 0.00 | 0.00 | 0.00 | 52 | 1031.5 |
| 20260505020505 | 18 | 89 | 1.6 | 14.5 | 0.00 | 0.00 | 0.00 | 52 | 1031.5 |
| 20260505020007 | 18 | 68 | 0.0 | 14.5 | 0.00 | 0.00 | 0.00 | 52 | 1031.4 |
| 20260505015507 | 18 | 99 | 0.0 | 6.4 | 0.00 | 0.00 | 0.00 | 52 | 1031.5 |
| 20260505015005 | 18 | 85 | 0.0 | 8.0 | 0.00 | 0.00 | 0.00 | 51 | 1031.5 |
| 20260505014505 | 18 | 109 | 0.0 | 11.3 | 0.00 | 0.00 | 0.00 | 51 | 1031.4 |
| 20260505014009 | 18 | 96 | 1.6 | 11.3 | 0.00 | 0.00 | 0.00 | 51 | 1031.4 |
| 20260505013504 | 18 | 103 | 1.6 | 6.4 | 0.00 | 0.00 | 0.00 | 51 | 1031.4 |
| 20260505013004 | 18 | 84 | 0.0 | 8.0 | 0.00 | 0.00 | 0.00 | 51 | 1031.4 |
| 20260505012504 | 18 | 70 | 3.2 | 8.0 | 0.00 | 0.00 | 0.00 | 51 | 1031.3 |
| 20260505012006 | 18 | 93 | 1.6 | 9.7 | 0.00 | 0.00 | 0.00 | 51 | 1031.3 |
| 20260505011504 | 18 | 116 | 1.6 | 9.7 | 0.00 | 0.00 | 0.00 | 51 | 1031.1 |
| 20260505011003 | 18 | 94 | 0.0 | 8.0 | 0.00 | 0.00 | 0.00 | 52 | 1031.2 |
| 20260505010503 | 18 | 105 | 1.6 | 8.0 | 0.00 | 0.00 | 0.00 | 51 | 1031.2 |
| 20260505010002 | 18 | 82 | 0.0 | 11.3 | 0.00 | 0.00 | 0.00 | 51 | 1031.1 |
| 20260505005504 | 18 | 75 | 1.6 | 11.3 | 0.00 | 0.00 | 0.00 | 51 | 1031.0 |
| 20260505005003 | 18 | 96 | 0.0 | 11.3 | 0.00 | 0.00 | 0.00 | 51 | 1031.1 |
| 20260505004507 | 18 | 93 | 0.0 | 11.3 | 0.00 | 0.00 | 0.00 | 50 | 1031.0 |
| 20260505004002 | 19 | 101 | 1.6 | 8.0 | 0.00 | 0.00 | 0.00 | 50 | 1031.0 |
| 20260505003502 | 19 | 65 | 1.6 | 9.7 | 0.00 | 0.00 | 0.00 | 50 | 1030.9 |
| 20260505003005 | 19 | 126 | 0.0 | 9.7 | 0.00 | 0.00 | 0.00 | 50 | 1031.0 |
| 20260505002501 | 19 | 110 | 1.6 | 14.5 | 0.00 | 0.00 | 0.00 | 49 | 1030.9 |
| 20260505002001 | 19 | 161 | 0.0 | 20.9 | 0.00 | 0.00 | 0.00 | 50 | 1031.0 |
| 20260505001609 | 19 | 136 | 1.6 | 20.9 | 0.00 | 0.00 | 0.00 | 49 | 1030.8 |
| 20260505001501 | 19 | 266 | 0.0 | 20.9 | 0.00 | 0.00 | 0.00 | 48 | 1030.9 |
| 20260505001100 | 20 | 240 | 1.6 | 20.9 | 0.00 | 0.00 | 0.00 | 49 | 1030.9 |
| 20260505000604 | 20 | 271 | 1.6 | 9.7 | 0.00 | 0.00 | 0.00 | 48 | 1030.8 |
| 20260504235558 | 20 | 99 | 1.6 | 8.0 | 0.00 | 0.00 | 0.00 | 47 | 1030.9 |
| 20260504235058 | 20 | 117 | 0.0 | 9.7 | 0.00 | 0.00 | 0.00 | 47 | 1030.7 |
| 20260504234557 | 20 | 108 | 1.6 | 9.7 | 0.00 | 0.00 | 0.00 | 47 | 1030.7 |
| 20260504234057 | 20 | 236 | 3.2 | 11.3 | 0.00 | 0.00 | 0.00 | 46 | 1030.6 |
| 20260504233557 | 20 | 115 | 3.2 | 14.5 | 0.00 | 0.00 | 0.00 | 46 | 1030.6 |
| 20260504233108 | 21 | 16 | 3.2 | 14.5 | 0.00 | 0.00 | 0.00 | 45 | 1030.5 |
| 20260504232556 | 21 | 125 | 3.2 | 9.7 | 0.00 | 0.00 | 0.00 | 45 | 1030.6 |
| 20260504232056 | 21 | 237 | 0.0 | 6.4 | 0.00 | 0.00 | 0.00 | 46 | 1030.7 |
| 20260504231604 | 21 | 95 | 1.6 | 14.5 | 0.00 | 0.00 | 0.00 | 44 | 1030.5 |
| 20260504231055 | 21 | 273 | 4.8 | 14.5 | 0.00 | 0.00 | 0.00 | 44 | 1030.5 |
| 20260504230555 | 21 | 252 | 1.6 | 17.7 | 0.00 | 0.00 | 0.00 | 43 | 1030.5 |
| 20260504230058 | 21 | 127 | 4.8 | 17.7 | 0.00 | 0.00 | 0.00 | 43 | 1030.5 |
| 20260504225556 | 21 | 174 | 1.6 | 11.3 | 0.00 | 0.00 | 0.00 | 44 | 1030.3 |
| 20260504225057 | 22 | 167 | 3.2 | 14.5 | 0.00 | 0.00 | 0.00 | 41 | 1030.3 |
| 20260504224555 | 22 | 34 | 0.0 | 14.5 | 0.00 | 0.00 | 0.00 | 42 | 1030.3 |
| 20260504224055 | 22 | 75 | 3.2 | 19.3 | 0.00 | 0.00 | 0.00 | 41 | 1030.3 |
| 20260504223555 | 22 | 69 | 3.2 | 19.3 | 0.00 | 0.00 | 0.00 | 41 | 1030.2 |
| 20260504223054 | 22 | 101 | 3.2 | 11.3 | 0.00 | 0.00 | 0.00 | 40 | 1030.3 |
| 20260504222555 | 22 | 85 | 1.6 | 14.5 | 0.00 | 0.00 | 0.00 | 40 | 1030.2 |
| 20260504222058 | 23 | 83 | 3.2 | 14.5 | 0.00 | 0.00 | 0.00 | 41 | 1030.1 |
| 20260504221554 | 23 | 79 | 1.6 | 14.5 | 0.00 | 0.00 | 0.00 | 40 | 1030.2 |
| 20260504221053 | 23 | 188 | 1.6 | 14.5 | 0.00 | 0.00 | 0.00 | 40 | 1030.2 |
| 20260504220553 | 23 | 86 | 1.6 | 14.5 | 0.00 | 0.00 | 0.00 | 41 | 1030.3 |
| 20260504220053 | 23 | 113 | 3.2 | 11.3 | 0.00 | 0.00 | 0.00 | 41 | 1030.2 |
| 20260504215553 | 23 | 131 | 1.6 | 12.9 | 0.00 | 0.00 | 0.00 | 39 | 1030.3 |
| 20260504215052 | 23 | 284 | 3.2 | 14.5 | 0.00 | 0.00 | 0.00 | 40 | 1030.4 |
| 20260504214555 | 22 | 82 | 4.8 | 20.9 | 0.00 | 0.00 | 0.00 | 40 | 1030.5 |
| 20260504214051 | 23 | 94 | 3.2 | 22.5 | 0.00 | 0.00 | 0.00 | 40 | 1030.6 |
| 20260504213551 | 22 | 70 | 4.8 | 22.5 | 0.00 | 0.00 | 0.00 | 41 | 1030.7 |
| 20260504213051 | 22 | 137 | 3.2 | 22.5 | 0.00 | 0.00 | 0.00 | 41 | 1030.6 |
| 20260504212550 | 22 | 95 | 3.2 | 14.5 | 0.00 | 0.00 | 0.00 | 41 | 1030.6 |
| 20260504212050 | 22 | 92 | 3.2 | 19.3 | 0.00 | 0.00 | 0.00 | 41 | 1030.6 |
| 20260504211549 | 23 | 352 | 3.2 | 30.6 | 0.00 | 0.00 | 0.00 | 41 | 1030.6 |
| 20260504211052 | 23 | 113 | 4.8 | 30.6 | 0.00 | 0.00 | 0.00 | 39 | 1030.8 |
| 20260504210549 | 23 | 264 | 0.0 | 16.1 | 0.00 | 0.00 | 0.00 | 41 | 1030.7 |
| 20260504210104 | 22 | 72 | 4.8 | 16.1 | 0.00 | 0.00 | 0.00 | 43 | 1030.9 |
| 20260504205548 | 22 | 96 | 3.2 | 11.3 | 0.00 | 0.00 | 0.00 | 42 | 1030.9 |
| 20260504205048 | 22 | 337 | 3.2 | 19.3 | 0.00 | 0.00 | 0.00 | 42 | 1030.8 |
| 20260504204556 | 22 | 77 | 3.2 | 19.3 | 0.00 | 0.00 | 0.00 | 41 | 1030.9 |
| 20260504204046 | 23 | 229 | 4.8 | 12.9 | 0.00 | 0.00 | 0.00 | 38 | 1031.0 |
| 20260504203545 | 22 | 242 | 3.2 | 22.5 | 0.00 | 0.00 | 0.00 | 42 | 1031.1 |
| 20260504203101 | 22 | 40 | 4.8 | 22.5 | 0.00 | 0.00 | 0.00 | 41 | 1031.1 |
| 20260504202545 | 22 | 120 | 6.4 | 22.5 | 0.00 | 0.00 | 0.00 | 41 | 1031.1 |
| 20260504202045 | 22 | 70 | 6.4 | 22.5 | 0.00 | 0.00 | 0.00 | 41 | 1031.2 |
| 20260504201544 | 23 | 84 | 6.4 | 19.3 | 0.00 | 0.00 | 0.00 | 43 | 1031.3 |
| 20260504201044 | 22 | 79 | 4.8 | 19.3 | 0.00 | 0.00 | 0.00 | 41 | 1031.3 |
| 20260504200543 | 23 | 120 | 3.2 | 17.7 | 0.00 | 0.00 | 0.00 | 42 | 1031.5 |
| 20260504200043 | 22 | 227 | 3.2 | 17.7 | 0.00 | 0.00 | 0.00 | 41 | 1031.6 |
| 20260504195543 | 22 | 117 | 8.0 | 17.7 | 0.00 | 0.00 | 0.00 | 40 | 1031.5 |
| 20260504195042 | 23 | 78 | 3.2 | 19.3 | 0.00 | 0.00 | 0.00 | 41 | 1031.7 |
| 20260504194541 | 23 | 205 | 4.8 | 19.3 | 0.00 | 0.00 | 0.00 | 40 | 1031.8 |
| 20260504194040 | 22 | 83 | 1.6 | 12.9 | 0.00 | 0.00 | 0.00 | 44 | 1031.9 |
| 20260504193539 | 22 | 82 | 3.2 | 19.3 | 0.00 | 0.00 | 0.00 | 42 | 1032.0 |
| 20260504193038 | 22 | 119 | 4.8 | 19.3 | 0.00 | 0.00 | 0.00 | 43 | 1032.0 |
| 20260504192537 | 22 | 84 | 8.0 | 17.7 | 0.00 | 0.00 | 0.00 | 39 | 1032.1 |
| 20260504192041 | 22 | 85 | 6.4 | 14.5 | 0.00 | 0.00 | 0.00 | 41 | 1032.2 |
| 20260504191535 | 22 | 102 | 1.6 | 19.3 | 0.00 | 0.00 | 0.00 | 43 | 1032.2 |
| 20260504191035 | 22 | 121 | 6.4 | 19.3 | 0.00 | 0.00 | 0.00 | 43 | 1032.3 |
| 20260504190537 | 22 | 87 | 4.8 | 20.9 | 0.00 | 0.00 | 0.00 | 44 | 1032.3 |